Time,TemperatureF,DewpointF,PressureIn,WindDirection,WindDirectionDegrees,WindSpeedMPH,WindSpeedGustMPH,Humidity,HourlyPrecipIn,Conditions,Clouds,dailyrainin,SoftwareType,DateUTC
2013-02-13 00:00:00,45.2,43.6,30.17,WSW,253,5.8,5.8,94,0.00,RA,,0.00,WeatherDisplay:10.37,2013-02-13 08:00:00,
2013-02-13 00:05:00,45.2,43.6,30.17,SW,227,3.5,3.5,94,0.00,RA,,0.00,WeatherDisplay:10.37,2013-02-13 08:05:00,
2013-02-13 00:10:00,45.1,43.2,30.17,SW,231,5.0,5.0,93,0.00,BKN,,0.00,WeatherDisplay:10.37,2013-02-13 08:10:00,
2013-02-13 00:15:00,45.0,43.1,30.17,SSW,212,5.8,5.8,93,0.00,BKN,,0.00,WeatherDisplay:10.37,2013-02-13 08:15:00,
2013-02-13 00:20:00,44.9,43.0,30.17,SW,232,5.8,5.8,93,0.00,BKN,,0.00,WeatherDisplay:10.37,2013-02-13 08:20:00,
2013-02-13 00:25:00,44.9,43.0,30.17,WSW,240,4.0,4.0,93,0.00,BKN,,0.00,WeatherDisplay:10.37,2013-02-13 08:25:00,
2013-02-13 00:30:00,44.9,42.7,30.17,SSW,209,5.8,5.8,92,0.00,BKN,,0.00,WeatherDisplay:10.37,2013-02-13 08:30:00,
2013-02-13 00:35:00,45.0,42.5,30.17,SW,235,8.1,8.1,91,0.00,BKN,,0.00,WeatherDisplay:10.37,2013-02-13 08:35:00,
2013-02-13 00:40:00,45.0,42.2,30.17,SW,216,4.6,4.6,90,0.00,BKN,,0.00,WeatherDisplay:10.37,2013-02-13 08:40:00,
2013-02-13 00:45:00,45.0,42.0,30.17,SW,234,5.8,5.8,89,0.00,BKN,,0.00,WeatherDisplay:10.37,2013-02-13 08:45:00,
2013-02-13 00:50:00,45.0,41.7,30.18,West,261,5.0,5.0,88,0.00,BKN,,0.00,WeatherDisplay:10.37,2013-02-13 08:50:00,
2013-02-13 00:55:00,45.0,41.4,30.18,South,179,5.0,5.0,87,0.00,BKN,,0.00,WeatherDisplay:10.37,2013-02-13 08:55:00,
2013-02-13 01:00:00,45.1,41.5,30.18,SW,223,7.0,7.0,87,0.00,BKN,,0.00,WeatherDisplay:10.37,2013-02-13 09:00:00,
2013-02-13 01:05:00,45.1,41.2,30.18,SW,221,5.8,5.8,86,0.00,BKN,,0.00,WeatherDisplay:10.37,2013-02-13 09:05:00,
2013-02-13 01:10:00,45.2,41.0,30.18,SW,230,5.0,5.0,85,0.00,BKN,,0.00,WeatherDisplay:10.37,2013-02-13 09:10:00,
2013-02-13 01:15:00,45.2,41.0,30.18,SW,234,9.2,9.2,85,0.00,BKN,,0.00,WeatherDisplay:10.37,2013-02-13 09:15:00,
2013-02-13 01:20:00,45.1,40.9,30.18,SW,223,8.1,8.1,85,0.00,BKN,,0.00,WeatherDisplay:10.37,2013-02-13 09:20:00,
2013-02-13 01:25:00,45.1,40.6,30.18,WSW,248,9.2,9.2,84,0.00,BKN,,0.00,WeatherDisplay:10.37,2013-02-13 09:25:00,
2013-02-13 01:30:00,45.0,40.5,30.18,West,262,6.9,6.9,84,0.00,BKN,,0.00,WeatherDisplay:10.37,2013-02-13 09:30:00,
2013-02-13 01:35:00,44.9,40.4,30.18,WSW,244,6.9,6.9,84,0.00,BKN,,0.00,WeatherDisplay:10.37,2013-02-13 09:35:00,
2013-02-13 01:40:00,44.9,40.4,30.19,SW,216,6.9,6.9,84,0.00,BKN,,0.00,WeatherDisplay:10.37,2013-02-13 09:40:00,
2013-02-13 01:45:00,44.8,40.3,30.19,SSW,213,4.6,4.6,84,0.00,BKN,,0.00,WeatherDisplay:10.37,2013-02-13 09:45:00,
2013-02-13 01:50:00,44.7,40.2,30.19,SSW,210,8.1,8.1,84,0.00,BKN,,0.00,WeatherDisplay:10.37,2013-02-13 09:50:00,
2013-02-13 01:55:00,44.6,40.1,30.19,South,178,7.0,7.0,84,0.00,BKN,,0.00,WeatherDisplay:10.37,2013-02-13 09:55:00,
2013-02-13 02:00:00,44.5,40.0,30.19,SW,225,9.2,9.2,84,0.00,BKN,,0.00,WeatherDisplay:10.37,2013-02-13 10:00:00,
2013-02-13 02:05:00,44.5,39.7,30.20,SW,234,5.8,5.8,83,0.00,BKN,,0.00,WeatherDisplay:10.37,2013-02-13 10:05:00,
2013-02-13 02:10:00,44.5,39.7,30.20,WSW,250,3.5,3.5,83,0.00,BKN,,0.00,WeatherDisplay:10.37,2013-02-13 10:10:00,
2013-02-13 02:15:00,44.5,39.7,30.20,SW,223,3.5,3.5,83,0.00,BKN,,0.00,WeatherDisplay:10.37,2013-02-13 10:15:00,
2013-02-13 02:20:00,44.5,39.7,30.20,WSW,237,4.6,4.6,83,0.00,BKN,,0.00,WeatherDisplay:10.37,2013-02-13 10:20:00,
2013-02-13 02:25:00,44.5,39.7,30.20,SW,223,3.5,3.5,83,0.00,BKN,,0.00,WeatherDisplay:10.37,2013-02-13 10:25:00,
2013-02-13 02:30:00,44.5,39.7,30.20,SSW,203,6.9,6.9,83,0.00,BKN,,0.00,WeatherDisplay:10.37,2013-02-13 10:30:00,
2013-02-13 02:35:00,44.5,39.7,30.21,WSW,246,3.5,3.5,83,0.00,BKN,,0.00,WeatherDisplay:10.37,2013-02-13 10:35:00,
2013-02-13 02:40:00,44.5,39.7,30.21,SW,218,8.1,8.1,83,0.00,BKN,,0.00,WeatherDisplay:10.37,2013-02-13 10:40:00,
2013-02-13 02:45:00,44.5,39.3,30.21,SW,231,5.8,5.8,82,0.00,BKN,,0.00,WeatherDisplay:10.37,2013-02-13 10:45:00,
2013-02-13 02:50:00,44.5,39.3,30.21,WSW,258,6.9,6.9,82,0.00,BKN,,0.00,WeatherDisplay:10.37,2013-02-13 10:50:00,
2013-02-13 02:55:00,44.5,39.3,30.20,SW,229,5.8,5.8,82,0.00,BKN,,0.00,WeatherDisplay:10.37,2013-02-13 10:55:00,
2013-02-13 03:00:00,44.3,39.2,30.20,WSW,244,6.0,6.0,82,0.00,BKN,,0.00,WeatherDisplay:10.37,2013-02-13 11:00:00,
2013-02-13 03:05:00,44.2,39.1,30.20,SW,223,5.8,5.8,82,0.00,BKN,,0.00,WeatherDisplay:10.37,2013-02-13 11:05:00,
2013-02-13 03:10:00,44.1,39.0,30.21,SW,234,9.2,9.2,82,0.00,BKN,,0.00,WeatherDisplay:10.37,2013-02-13 11:10:00,
2013-02-13 03:15:00,44.0,39.2,30.21,South,188,6.9,6.9,83,0.00,BKN,,0.00,WeatherDisplay:10.37,2013-02-13 11:15:00,
2013-02-13 03:20:00,43.9,39.1,30.21,SW,229,5.8,5.8,83,0.00,BKN,,0.00,WeatherDisplay:10.37,2013-02-13 11:20:00,
2013-02-13 03:25:00,43.8,39.0,30.21,SSW,194,3.5,3.5,83,0.00,SCT,,0.00,WeatherDisplay:10.37,2013-02-13 11:25:00,
2013-02-13 03:30:00,43.8,39.0,30.21,WSW,245,3.5,3.5,83,0.00,SCT,,0.00,WeatherDisplay:10.37,2013-02-13 11:30:00,
2013-02-13 03:35:00,43.6,38.8,30.22,SW,225,2.3,2.4,83,0.00,SCT,,0.00,WeatherDisplay:10.37,2013-02-13 11:35:00,
2013-02-13 03:40:00,43.6,38.8,30.22,WSW,239,5.0,5.0,83,0.00,SCT,,0.00,WeatherDisplay:10.37,2013-02-13 11:40:00,
2013-02-13 03:45:00,43.7,38.9,30.22,West,262,6.0,6.0,83,0.00,SCT,,0.00,WeatherDisplay:10.37,2013-02-13 11:45:00,
2013-02-13 03:50:00,43.9,38.8,30.22,WSW,255,6.9,6.9,82,0.00,SCT,,0.00,WeatherDisplay:10.37,2013-02-13 11:50:00,
2013-02-13 03:55:00,43.9,38.8,30.22,SW,232,3.0,3.0,82,0.00,SCT,,0.00,WeatherDisplay:10.37,2013-02-13 11:55:00,
2013-02-13 04:00:00,43.9,38.8,30.23,WSW,246,3.5,3.5,82,0.00,SCT,,0.00,WeatherDisplay:10.37,2013-02-13 12:00:00,
2013-02-13 04:05:00,43.9,38.8,30.23,WSW,247,3.5,3.5,82,0.00,SCT,,0.00,WeatherDisplay:10.37,2013-02-13 12:05:00,
2013-02-13 04:10:00,43.8,39.0,30.23,WSW,251,1.1,0.0,83,0.00,SCT,,0.00,WeatherDisplay:10.37,2013-02-13 12:10:00,
2013-02-13 04:15:00,43.7,38.9,30.23,SW,232,3.5,3.5,83,0.00,SCT,,0.00,WeatherDisplay:10.37,2013-02-13 12:15:00,
2013-02-13 04:20:00,43.7,38.9,30.23,SSW,196,4.0,4.0,83,0.00,SCT,,0.00,WeatherDisplay:10.37,2013-02-13 12:20:00,
2013-02-13 04:25:00,43.5,39.0,30.24,SW,223,3.5,3.5,84,0.00,SCT,,0.00,WeatherDisplay:10.37,2013-02-13 12:25:00,
2013-02-13 04:30:00,43.4,38.9,30.24,SW,232,4.6,4.6,84,0.00,SCT,,0.00,WeatherDisplay:10.37,2013-02-13 12:30:00,
2013-02-13 04:35:00,43.4,39.2,30.24,SW,236,1.1,1.1,85,0.00,SCT,,0.00,WeatherDisplay:10.37,2013-02-13 12:35:00,
2013-02-13 04:40:00,43.3,39.1,30.24,SW,225,2.3,2.3,85,0.00,SCT,,0.00,WeatherDisplay:10.37,2013-02-13 12:40:00,
2013-02-13 04:45:00,43.3,39.1,30.24,WSW,240,3.5,3.5,85,0.00,SCT,,0.00,WeatherDisplay:10.37,2013-02-13 12:45:00,
2013-02-13 04:50:00,43.3,39.1,30.24,WSW,239,3.5,3.5,85,0.00,SCT,,0.00,WeatherDisplay:10.37,2013-02-13 12:50:00,
2013-02-13 04:55:00,43.2,39.0,30.24,SW,232,1.1,1.3,85,0.00,SCT,,0.00,WeatherDisplay:10.37,2013-02-13 12:55:00,
2013-02-13 05:00:00,43.2,39.3,30.24,WSW,250,2.3,2.3,86,0.00,SCT,,0.00,WeatherDisplay:10.37,2013-02-13 13:00:00,
2013-02-13 05:05:00,43.1,39.2,30.24,SW,232,1.1,1.1,86,0.00,SCT,,0.00,WeatherDisplay:10.37,2013-02-13 13:05:00,
2013-02-13 05:10:00,43.0,39.1,30.24,WSW,254,0.0,0.0,86,0.00,SCT,,0.00,WeatherDisplay:10.37,2013-02-13 13:10:00,
2013-02-13 05:15:00,42.9,39.0,30.25,WSW,243,1.1,1.1,86,0.00,SCT,,0.00,WeatherDisplay:10.37,2013-02-13 13:15:00,
2013-02-13 05:20:00,42.8,38.9,30.25,SSW,199,0.0,0.4,86,0.00,SCT,,0.00,WeatherDisplay:10.37,2013-02-13 13:20:00,
2013-02-13 05:25:00,42.7,39.1,30.25,WSW,252,1.1,1.1,87,0.00,SCT,,0.00,WeatherDisplay:10.37,2013-02-13 13:25:00,
2013-02-13 05:30:00,42.7,39.1,30.25,SW,227,0.0,0.0,87,0.00,SCT,,0.00,WeatherDisplay:10.37,2013-02-13 13:30:00,
2013-02-13 05:35:00,42.6,39.0,30.25,SW,232,3.5,3.5,87,0.00,SCT,,0.00,WeatherDisplay:10.37,2013-02-13 13:35:00,
2013-02-13 05:40:00,42.6,39.3,30.25,West,268,3.5,0.0,88,0.00,SCT,,0.00,WeatherDisplay:10.37,2013-02-13 13:40:00,
2013-02-13 05:45:00,42.6,39.3,30.25,SW,221,3.5,3.5,88,0.00,SCT,,0.00,WeatherDisplay:10.37,2013-02-13 13:45:00,
2013-02-13 05:50:00,42.7,39.4,30.25,SW,223,2.3,2.3,88,0.00,SCT,,0.00,WeatherDisplay:10.37,2013-02-13 13:50:00,
2013-02-13 05:55:00,42.8,39.8,30.25,SW,221,3.5,3.5,89,0.00,SCT,,0.00,WeatherDisplay:10.37,2013-02-13 13:55:00,
2013-02-13 06:00:00,42.7,39.7,30.26,WSW,249,3.5,3.5,89,0.00,SCT,,0.00,WeatherDisplay:10.37,2013-02-13 14:00:00,
2013-02-13 06:05:00,42.6,39.6,30.25,WSW,252,3.5,3.5,89,0.00,SCT,,0.00,WeatherDisplay:10.37,2013-02-13 14:05:00,
2013-02-13 06:10:00,42.5,39.5,30.25,SW,215,2.3,2.3,89,0.00,SCT,,0.00,WeatherDisplay:10.37,2013-02-13 14:10:00,
2013-02-13 06:15:00,42.4,39.4,30.25,South,175,3.5,3.5,89,0.00,SCT,,0.00,WeatherDisplay:10.37,2013-02-13 14:15:00,
2013-02-13 06:20:00,42.3,39.3,30.25,South,175,0.0,0.0,89,0.00,SCT,,0.00,WeatherDisplay:10.37,2013-02-13 14:20:00,
2013-02-13 06:25:00,42.3,39.3,30.26,South,175,0.0,0.0,89,0.00,SCT,,0.00,WeatherDisplay:10.37,2013-02-13 14:25:00,
2013-02-13 06:30:00,42.2,38.9,30.26,South,175,0.0,0.0,88,0.00,SCT,,0.00,WeatherDisplay:10.37,2013-02-13 14:30:00,
2013-02-13 06:35:00,42.1,38.8,30.26,South,175,0.0,0.0,88,0.00,SCT,,0.00,WeatherDisplay:10.37,2013-02-13 14:35:00,
2013-02-13 06:40:00,41.9,38.6,30.26,South,175,1.1,0.0,88,0.00,SCT,,0.00,WeatherDisplay:10.37,2013-02-13 14:40:00,
2013-02-13 06:45:00,41.6,38.3,30.26,South,176,0.0,0.4,88,0.00,SCT,,0.00,WeatherDisplay:10.37,2013-02-13 14:45:00,
2013-02-13 06:50:00,41.5,38.2,30.27,South,176,0.0,0.0,88,0.00,SCT,,0.00,WeatherDisplay:10.37,2013-02-13 14:50:00,
2013-02-13 06:55:00,41.3,38.3,30.27,South,176,0.0,0.0,89,0.00,SCT,,0.00,WeatherDisplay:10.37,2013-02-13 14:55:00,
2013-02-13 07:00:00,41.1,38.1,30.27,South,176,1.1,0.0,89,0.00,SCT,,0.00,WeatherDisplay:10.37,2013-02-13 15:00:00,
2013-02-13 07:05:00,40.9,37.9,30.27,South,176,1.1,0.0,89,0.00,SCT,,0.00,WeatherDisplay:10.37,2013-02-13 15:05:00,
2013-02-13 07:10:00,40.8,37.8,30.27,South,176,0.0,0.0,89,0.00,SCT,,0.00,WeatherDisplay:10.37,2013-02-13 15:10:00,
2013-02-13 07:15:00,40.7,38.0,30.27,South,176,0.0,0.1,90,0.00,SCT,,0.00,WeatherDisplay:10.37,2013-02-13 15:15:00,
2013-02-13 07:20:00,40.7,38.0,30.28,South,182,0.0,0.1,90,0.00,SCT,,0.00,WeatherDisplay:10.37,2013-02-13 15:20:00,
2013-02-13 07:25:00,40.7,38.0,30.28,South,175,1.1,1.1,90,0.00,BKN,,0.00,WeatherDisplay:10.37,2013-02-13 15:25:00,
2013-02-13 07:30:00,40.7,38.0,30.28,South,176,0.0,0.0,90,0.00,BKN,,0.00,WeatherDisplay:10.37,2013-02-13 15:30:00,
2013-02-13 07:35:00,40.7,38.0,30.28,South,175,0.0,0.0,90,0.00,BKN,,0.00,WeatherDisplay:10.37,2013-02-13 15:35:00,
2013-02-13 07:40:00,40.6,37.9,30.28,South,175,0.0,0.0,90,0.00,BKN,,0.00,WeatherDisplay:10.37,2013-02-13 15:40:00,
2013-02-13 07:45:00,40.6,37.9,30.29,South,176,0.0,0.3,90,0.00,BKN,,0.00,WeatherDisplay:10.37,2013-02-13 15:45:00,
2013-02-13 07:50:00,40.6,38.2,30.29,SW,221,2.3,0.0,91,0.00,BKN,,0.00,WeatherDisplay:10.37,2013-02-13 15:50:00,
2013-02-13 07:55:00,40.6,37.9,30.29,SW,221,2.3,2.3,90,0.00,BKN,,0.00,WeatherDisplay:10.37,2013-02-13 15:55:00,
2013-02-13 08:00:00,40.7,38.3,30.29,SW,221,0.0,0.0,91,0.00,BKN,,0.00,WeatherDisplay:10.37,2013-02-13 16:00:00,
2013-02-13 08:05:00,40.8,38.4,30.29,WSW,238,2.3,2.3,91,0.00,BKN,,0.00,WeatherDisplay:10.37,2013-02-13 16:05:00,
2013-02-13 08:10:00,40.9,38.2,30.30,SSW,195,0.0,0.0,90,0.00,BKN,,0.00,WeatherDisplay:10.37,2013-02-13 16:10:00,
2013-02-13 08:15:00,41.0,38.6,30.30,SSW,195,0.0,0.0,91,0.00,BKN,,0.00,WeatherDisplay:10.37,2013-02-13 16:15:00,
2013-02-13 08:20:00,41.1,38.7,30.30,SSW,195,0.0,0.0,91,0.00,BKN,,0.00,WeatherDisplay:10.37,2013-02-13 16:20:00,
2013-02-13 08:25:00,41.2,38.8,30.30,SSW,195,0.0,0.0,91,0.00,OVC,,0.00,WeatherDisplay:10.37,2013-02-13 16:25:00,
2013-02-13 08:30:00,41.2,38.8,30.30,SSW,195,0.0,0.0,91,0.00,OVC,,0.00,WeatherDisplay:10.37,2013-02-13 16:30:00,
2013-02-13 08:35:00,41.2,38.8,30.31,SSW,195,0.0,0.0,91,0.00,OVC,,0.00,WeatherDisplay:10.37,2013-02-13 16:35:00,
2013-02-13 08:40:00,41.2,38.8,30.31,SSW,195,0.0,0.0,91,0.00,OVC,,0.00,WeatherDisplay:10.37,2013-02-13 16:40:00,
2013-02-13 08:45:00,41.2,38.8,30.31,SSW,195,0.0,0.0,91,0.00,OVC,,0.00,WeatherDisplay:10.37,2013-02-13 16:45:00,
2013-02-13 08:50:00,41.3,38.9,30.31,SSW,195,0.0,0.0,91,0.00,OVC,,0.00,WeatherDisplay:10.37,2013-02-13 16:50:00,
2013-02-13 08:55:00,41.3,38.9,30.31,SSW,195,0.0,0.0,91,0.00,OVC,,0.00,WeatherDisplay:10.37,2013-02-13 16:55:00,
2013-02-13 09:00:00,41.4,39.0,30.31,SSW,195,0.0,0.0,91,0.00,OVC,,0.00,WeatherDisplay:10.37,2013-02-13 17:00:00,
2013-02-13 09:05:00,41.5,39.1,30.31,SSW,195,0.0,0.0,91,0.00,OVC,,0.00,WeatherDisplay:10.37,2013-02-13 17:05:00,
2013-02-13 09:10:00,41.6,39.2,30.31,SSW,195,0.0,0.0,91,0.00,OVC,,0.00,WeatherDisplay:10.37,2013-02-13 17:10:00,
2013-02-13 09:15:00,41.8,39.4,30.32,SSW,195,0.0,0.0,91,0.00,OVC,,0.00,WeatherDisplay:10.37,2013-02-13 17:15:00,
2013-02-13 09:20:00,41.9,39.5,30.32,SSW,195,0.0,0.0,91,0.00,OVC,,0.00,WeatherDisplay:10.37,2013-02-13 17:20:00,
2013-02-13 09:25:00,42.1,39.7,30.32,SSW,195,0.0,0.0,91,0.00,OVC,,0.00,WeatherDisplay:10.37,2013-02-13 17:25:00,
2013-02-13 09:30:00,42.3,39.9,30.33,SSW,195,0.0,0.0,91,0.00,OVC,,0.00,WeatherDisplay:10.37,2013-02-13 17:30:00,
2013-02-13 09:35:00,42.8,40.4,30.33,SSW,195,1.1,0.0,91,0.00,OVC,,0.00,WeatherDisplay:10.37,2013-02-13 17:35:00,
2013-02-13 09:40:00,43.3,40.6,30.33,SSW,195,1.1,1.1,90,0.00,OVC,,0.00,WeatherDisplay:10.37,2013-02-13 17:40:00,
2013-02-13 09:45:00,43.5,40.5,30.33,SW,215,3.5,3.5,89,0.00,OVC,,0.00,WeatherDisplay:10.37,2013-02-13 17:45:00,
2013-02-13 09:50:00,43.6,40.3,30.33,SW,217,3.5,3.5,88,0.00,OVC,,0.00,WeatherDisplay:10.37,2013-02-13 17:50:00,
2013-02-13 09:55:00,43.7,40.4,30.33,SW,218,1.1,1.1,88,0.00,OVC,,0.00,WeatherDisplay:10.37,2013-02-13 17:55:00,
2013-02-13 10:00:00,44.0,40.4,30.33,SW,218,2.3,2.3,87,0.00,OVC,,0.00,WeatherDisplay:10.37,2013-02-13 18:00:00,
2013-02-13 10:05:00,44.1,40.5,30.33,SW,236,2.3,2.3,87,0.00,OVC,,0.00,WeatherDisplay:10.37,2013-02-13 18:05:00,
2013-02-13 10:10:00,44.0,40.1,30.33,SW,223,3.5,3.5,86,0.00,OVC,,0.00,WeatherDisplay:10.37,2013-02-13 18:10:00,
2013-02-13 10:15:00,44.2,40.3,30.33,SW,225,1.1,1.1,86,0.00,OVC,,0.00,WeatherDisplay:10.37,2013-02-13 18:15:00,
2013-02-13 10:20:00,44.5,40.3,30.33,SW,225,0.0,0.0,85,0.00,OVC,,0.00,WeatherDisplay:10.37,2013-02-13 18:20:00,
2013-02-13 10:25:00,44.5,40.3,30.33,SSW,208,3.5,3.5,85,0.00,OVC,,0.00,WeatherDisplay:10.37,2013-02-13 18:25:00,
2013-02-13 10:30:00,44.7,40.5,30.33,SW,220,2.3,2.3,85,0.00,OVC,,0.00,WeatherDisplay:10.37,2013-02-13 18:30:00,
2013-02-13 10:35:00,45.1,41.2,30.33,SW,220,0.0,0.0,86,0.00,OVC,,0.00,WeatherDisplay:10.37,2013-02-13 18:35:00,
2013-02-13 10:40:00,45.0,40.8,30.34,SW,223,3.5,3.5,85,0.00,OVC,,0.00,WeatherDisplay:10.37,2013-02-13 18:40:00,
2013-02-13 10:45:00,45.2,41.3,30.34,SW,223,1.1,0.0,86,0.00,OVC,,0.00,WeatherDisplay:10.37,2013-02-13 18:45:00,
2013-02-13 10:50:00,45.2,40.7,30.34,SSW,205,3.5,3.5,84,0.00,OVC,,0.00,WeatherDisplay:10.37,2013-02-13 18:50:00,
2013-02-13 10:55:00,45.9,41.3,30.34,SSW,202,1.1,1.1,84,0.00,OVC,,0.00,WeatherDisplay:10.37,2013-02-13 18:55:00,
2013-02-13 11:00:00,46.4,41.2,30.34,SSW,202,1.1,1.1,82,0.00,OVC,,0.00,WeatherDisplay:10.37,2013-02-13 19:00:00,
2013-02-13 11:05:00,46.1,41.2,30.34,SSW,202,0.0,0.0,83,0.00,OVC,,0.00,WeatherDisplay:10.37,2013-02-13 19:05:00,
2013-02-13 11:10:00,46.1,41.2,30.34,SSW,202,0.0,0.0,83,0.00,OVC,,0.00,WeatherDisplay:10.37,2013-02-13 19:10:00,
2013-02-13 11:15:00,46.2,41.3,30.34,SSE,157,0.0,0.2,83,0.00,OVC,,0.00,WeatherDisplay:10.37,2013-02-13 19:15:00,
2013-02-13 11:20:00,46.4,41.5,30.35,SSE,157,0.0,0.0,83,0.00,OVC,,0.00,WeatherDisplay:10.37,2013-02-13 19:20:00,
2013-02-13 11:25:00,46.5,41.3,30.35,SSE,157,0.0,0.0,82,0.00,OVC,,0.00,WeatherDisplay:10.37,2013-02-13 19:25:00,
2013-02-13 11:30:00,46.2,41.0,30.34,SSE,157,0.0,0.0,82,0.00,OVC,,0.00,WeatherDisplay:10.37,2013-02-13 19:30:00,
2013-02-13 11:35:00,46.3,40.8,30.34,SSW,192,1.1,1.1,81,0.00,OVC,,0.00,WeatherDisplay:10.37,2013-02-13 19:35:00,
2013-02-13 11:40:00,46.4,41.2,30.34,SSW,192,0.0,0.0,82,0.00,OVC,,0.00,WeatherDisplay:10.37,2013-02-13 19:40:00,
2013-02-13 11:45:00,46.5,41.6,30.35,SSW,201,0.0,0.0,83,0.00,OVC,,0.00,WeatherDisplay:10.37,2013-02-13 19:45:00,
2013-02-13 11:50:00,46.6,41.4,30.35,South,186,3.5,3.5,82,0.00,OVC,,0.00,WeatherDisplay:10.37,2013-02-13 19:50:00,
2013-02-13 11:55:00,46.9,41.7,30.35,South,182,4.6,4.6,82,0.00,OVC,,0.00,WeatherDisplay:10.37,2013-02-13 19:55:00,
2013-02-13 12:00:00,47.4,42.2,30.35,SW,219,2.3,2.3,82,0.00,OVC,,0.00,WeatherDisplay:10.37,2013-02-13 20:00:00,
2013-02-13 12:05:00,47.6,42.4,30.35,SSW,197,3.5,3.5,82,0.00,OVC,,0.00,WeatherDisplay:10.37,2013-02-13 20:05:00,
2013-02-13 12:10:00,47.4,41.5,30.34,SSW,195,1.1,1.1,80,0.00,OVC,,0.00,WeatherDisplay:10.37,2013-02-13 20:10:00,
2013-02-13 12:15:00,47.2,42.0,30.34,SW,220,5.0,5.0,82,0.00,OVC,,0.00,WeatherDisplay:10.37,2013-02-13 20:15:00,
2013-02-13 12:20:00,47.1,41.6,30.34,SW,220,5.8,5.8,81,0.00,OVC,,0.00,WeatherDisplay:10.37,2013-02-13 20:20:00,
2013-02-13 12:25:00,47.3,41.8,30.34,WSW,251,3.5,3.5,81,0.00,OVC,,0.00,WeatherDisplay:10.37,2013-02-13 20:25:00,
2013-02-13 12:30:00,47.0,41.5,30.34,SW,234,3.5,3.5,81,0.00,OVC,,0.00,WeatherDisplay:10.37,2013-02-13 20:30:00,
2013-02-13 12:35:00,47.1,41.6,30.34,SW,227,5.8,5.8,81,0.00,OVC,,0.00,WeatherDisplay:10.37,2013-02-13 20:35:00,
2013-02-13 12:40:00,47.2,41.7,30.34,SW,231,5.8,5.8,81,0.00,OVC,,0.00,WeatherDisplay:10.37,2013-02-13 20:40:00,
2013-02-13 12:45:00,47.2,41.7,30.34,SW,227,5.8,5.8,81,0.00,OVC,,0.00,WeatherDisplay:10.37,2013-02-13 20:45:00,
2013-02-13 12:50:00,47.9,42.7,30.34,SW,217,1.1,1.1,82,0.00,OVC,,0.00,WeatherDisplay:10.37,2013-02-13 20:50:00,
2013-02-13 12:55:00,47.9,41.7,30.34,SSW,200,6.9,6.9,79,0.00,OVC,,0.00,WeatherDisplay:10.37,2013-02-13 20:55:00,
2013-02-13 13:00:00,48.1,41.9,30.34,SW,217,9.2,9.2,79,0.00,OVC,,0.00,WeatherDisplay:10.37,2013-02-13 21:00:00,
2013-02-13 13:05:00,48.0,41.5,30.34,WSW,252,6.9,6.9,78,0.00,OVC,,0.00,WeatherDisplay:10.37,2013-02-13 21:05:00,
2013-02-13 13:10:00,47.6,41.1,30.34,SW,222,8.1,8.1,78,0.00,OVC,,0.00,WeatherDisplay:10.37,2013-02-13 21:10:00,
2013-02-13 13:15:00,47.6,41.1,30.34,SW,219,8.1,8.1,78,0.00,OVC,,0.00,WeatherDisplay:10.37,2013-02-13 21:15:00,
2013-02-13 13:20:00,47.4,40.9,30.34,SSW,202,5.0,5.0,78,0.00,OVC,,0.00,WeatherDisplay:10.37,2013-02-13 21:20:00,
2013-02-13 13:25:00,47.6,41.4,30.34,SW,228,3.5,3.5,79,0.00,OVC,,0.00,WeatherDisplay:10.37,2013-02-13 21:25:00,
2013-02-13 13:30:00,47.6,41.1,30.34,SW,233,4.6,4.6,78,0.00,OVC,,0.00,WeatherDisplay:10.37,2013-02-13 21:30:00,
2013-02-13 13:35:00,47.6,40.7,30.34,WSW,237,6.0,6.0,77,0.00,OVC,,0.00,WeatherDisplay:10.37,2013-02-13 21:35:00,
2013-02-13 13:40:00,47.8,40.9,30.34,SSW,213,5.0,5.0,77,0.00,OVC,,0.00,WeatherDisplay:10.37,2013-02-13 21:40:00,
2013-02-13 13:45:00,48.1,41.2,30.33,SW,228,3.5,3.5,77,0.00,OVC,,0.00,WeatherDisplay:10.37,2013-02-13 21:45:00,
2013-02-13 13:50:00,48.1,41.2,30.33,SSW,200,4.6,4.6,77,0.00,OVC,,0.00,WeatherDisplay:10.37,2013-02-13 21:50:00,
2013-02-13 13:55:00,47.7,40.5,30.33,WSW,240,3.5,3.5,76,0.00,OVC,,0.00,WeatherDisplay:10.37,2013-02-13 21:55:00,
2013-02-13 14:00:00,47.6,41.1,30.34,SW,219,3.5,3.5,78,0.00,OVC,,0.00,WeatherDisplay:10.37,2013-02-13 22:00:00,
2013-02-13 14:05:00,47.7,40.8,30.34,WSW,238,3.5,3.5,77,0.00,OVC,,0.00,WeatherDisplay:10.37,2013-02-13 22:05:00,
2013-02-13 14:10:00,48.3,41.4,30.33,West,277,5.8,5.8,77,0.00,OVC,,0.00,WeatherDisplay:10.37,2013-02-13 22:10:00,
2013-02-13 14:15:00,48.1,41.2,30.33,SW,216,6.9,6.9,77,0.00,OVC,,0.00,WeatherDisplay:10.37,2013-02-13 22:15:00,
2013-02-13 14:20:00,48.3,41.4,30.33,WSW,237,4.0,4.0,77,0.00,OVC,,0.00,WeatherDisplay:10.37,2013-02-13 22:20:00,
2013-02-13 14:25:00,48.5,41.3,30.33,SW,224,3.5,3.5,76,0.00,OVC,,0.00,WeatherDisplay:10.37,2013-02-13 22:25:00,
2013-02-13 14:30:00,48.7,40.8,30.33,SW,217,9.2,9.2,74,0.00,OVC,,0.00,WeatherDisplay:10.37,2013-02-13 22:30:00,
2013-02-13 14:35:00,48.2,41.0,30.33,WSW,240,6.0,6.0,76,0.00,OVC,,0.00,WeatherDisplay:10.37,2013-02-13 22:35:00,
2013-02-13 14:40:00,47.8,40.6,30.34,SSW,209,5.8,5.8,76,0.00,OVC,,0.00,WeatherDisplay:10.37,2013-02-13 22:40:00,
2013-02-13 14:45:00,47.8,40.6,30.34,WSW,238,6.9,6.9,76,0.00,OVC,,0.00,WeatherDisplay:10.37,2013-02-13 22:45:00,
2013-02-13 14:50:00,47.9,40.7,30.33,SSW,209,3.5,3.5,76,0.00,OVC,,0.00,WeatherDisplay:10.37,2013-02-13 22:50:00,
2013-02-13 14:55:00,48.5,40.6,30.33,WSW,244,4.6,4.6,74,0.00,OVC,,0.00,WeatherDisplay:10.37,2013-02-13 22:55:00,
2013-02-13 15:00:00,48.2,40.6,30.34,WSW,244,4.6,4.6,75,0.00,OVC,,0.00,WeatherDisplay:10.37,2013-02-13 23:00:00,
2013-02-13 15:05:00,48.5,40.6,30.34,SW,217,8.1,8.1,74,0.00,OVC,,0.00,WeatherDisplay:10.37,2013-02-13 23:05:00,
2013-02-13 15:10:00,48.7,40.8,30.34,SSW,202,3.5,3.5,74,0.00,OVC,,0.00,WeatherDisplay:10.37,2013-02-13 23:10:00,
2013-02-13 15:15:00,48.5,40.2,30.34,SW,236,2.3,2.3,73,0.00,OVC,,0.00,WeatherDisplay:10.37,2013-02-13 23:15:00,
2013-02-13 15:20:00,48.1,39.9,30.34,SW,231,4.6,4.6,73,0.00,OVC,,0.00,WeatherDisplay:10.37,2013-02-13 23:20:00,
2013-02-13 15:25:00,48.0,40.5,30.34,SSW,211,4.6,4.6,75,0.00,BKN,,0.00,WeatherDisplay:10.37,2013-02-13 23:25:00,
2013-02-13 15:30:00,47.7,40.2,30.34,WSW,250,5.8,5.8,75,0.00,BKN,,0.00,WeatherDisplay:10.37,2013-02-13 23:30:00,
2013-02-13 15:35:00,47.7,40.5,30.34,SSW,194,3.5,3.5,76,0.00,BKN,,0.00,WeatherDisplay:10.37,2013-02-13 23:35:00,
2013-02-13 15:40:00,47.7,40.2,30.34,SSW,212,5.8,5.8,75,0.00,BKN,,0.00,WeatherDisplay:10.37,2013-02-13 23:40:00,
2013-02-13 15:45:00,47.5,40.0,30.34,SSW,207,4.6,4.6,75,0.00,BKN,,0.00,WeatherDisplay:10.37,2013-02-13 23:45:00,
2013-02-13 15:50:00,47.6,40.1,30.34,SSW,201,2.3,2.3,75,0.00,BKN,,0.00,WeatherDisplay:10.37,2013-02-13 23:50:00,
2013-02-13 15:55:00,47.5,40.0,30.35,West,259,3.5,3.5,75,0.00,BKN,,0.00,WeatherDisplay:10.37,2013-02-13 23:55:00,
2013-02-13 16:00:00,47.3,39.8,30.35,SW,231,3.5,3.5,75,0.00,BKN,,0.00,WeatherDisplay:10.37,2013-02-14 00:00:00,
2013-02-13 16:05:00,47.3,39.8,30.35,SSW,192,6.9,6.9,75,0.00,BKN,,0.00,WeatherDisplay:10.37,2013-02-14 00:05:00,
2013-02-13 16:10:00,47.2,39.7,30.35,SSW,199,6.0,6.0,75,0.00,BKN,,0.00,WeatherDisplay:10.37,2013-02-14 00:10:00,
2013-02-13 16:15:00,47.1,39.6,30.35,SSW,213,5.8,5.8,75,0.00,BKN,,0.00,WeatherDisplay:10.37,2013-02-14 00:15:00,
2013-02-13 16:20:00,47.1,39.9,30.34,SSW,200,6.0,6.0,76,0.00,BKN,,0.00,WeatherDisplay:10.37,2013-02-14 00:20:00,
2013-02-13 16:25:00,47.0,39.8,30.34,SW,233,3.5,3.5,76,0.00,OVC,,0.00,WeatherDisplay:10.37,2013-02-14 00:25:00,
2013-02-13 16:30:00,47.0,39.8,30.35,SSW,211,4.6,4.6,76,0.00,OVC,,0.00,WeatherDisplay:10.37,2013-02-14 00:30:00,
2013-02-13 16:35:00,46.9,39.7,30.35,SW,215,3.5,3.5,76,0.00,OVC,,0.00,WeatherDisplay:10.37,2013-02-14 00:35:00,
2013-02-13 16:40:00,46.9,39.7,30.35,SW,220,3.5,3.5,76,0.00,OVC,,0.00,WeatherDisplay:10.37,2013-02-14 00:40:00,
2013-02-13 16:45:00,46.7,39.5,30.35,South,188,3.5,3.5,76,0.00,OVC,,0.00,WeatherDisplay:10.37,2013-02-14 00:45:00,
2013-02-13 16:50:00,46.7,39.9,30.35,SSW,212,3.5,3.5,77,0.00,OVC,,0.00,WeatherDisplay:10.37,2013-02-14 00:50:00,
2013-02-13 16:55:00,46.6,39.8,30.35,SSW,203,3.5,3.7,77,0.00,OVC,,0.00,WeatherDisplay:10.37,2013-02-14 00:55:00,
2013-02-13 17:00:00,46.5,39.7,30.35,SW,235,3.5,3.5,77,0.00,OVC,,0.00,WeatherDisplay:10.37,2013-02-14 01:00:00,
2013-02-13 17:05:00,46.5,39.7,30.35,SSW,205,3.5,3.5,77,0.00,OVC,,0.00,WeatherDisplay:10.37,2013-02-14 01:05:00,
2013-02-13 17:10:00,46.4,39.9,30.36,SW,228,1.0,1.2,78,0.00,OVC,,0.00,WeatherDisplay:10.37,2013-02-14 01:10:00,
2013-02-13 17:15:00,46.3,39.8,30.36,SW,234,3.5,3.5,78,0.00,OVC,,0.00,WeatherDisplay:10.37,2013-02-14 01:15:00,
2013-02-13 17:20:00,46.1,39.6,30.36,SW,215,3.5,3.5,78,0.00,OVC,,0.00,WeatherDisplay:10.37,2013-02-14 01:20:00,
2013-02-13 17:25:00,46.0,39.5,30.36,SW,225,3.5,3.5,78,0.00,OVC,,0.00,WeatherDisplay:10.37,2013-02-14 01:25:00,
2013-02-13 17:30:00,45.8,39.3,30.36,SW,219,3.0,3.0,78,0.00,OVC,,0.00,WeatherDisplay:10.37,2013-02-14 01:30:00,
2013-02-13 17:35:00,45.6,39.1,30.36,WSW,244,2.3,2.3,78,0.00,BKN,,0.00,WeatherDisplay:10.37,2013-02-14 01:35:00,
2013-02-13 17:40:00,45.5,39.4,30.36,WSW,244,2.3,2.3,79,0.00,BKN,,0.00,WeatherDisplay:10.37,2013-02-14 01:40:00,
2013-02-13 17:45:00,45.3,39.2,30.36,WSW,243,2.3,2.3,79,0.00,BKN,,0.00,WeatherDisplay:10.37,2013-02-14 01:45:00,
2013-02-13 17:50:00,45.1,39.0,30.36,WSW,243,1.1,0.0,79,0.00,BKN,,0.00,WeatherDisplay:10.37,2013-02-14 01:50:00,
2013-02-13 17:55:00,44.8,39.3,30.36,WSW,243,0.0,0.0,81,0.00,BKN,,0.00,WeatherDisplay:10.37,2013-02-14 01:55:00,
2013-02-13 18:00:00,44.3,39.2,30.36,WSW,243,0.0,0.0,82,0.00,BKN,,0.00,WeatherDisplay:10.37,2013-02-14 02:00:00,
2013-02-13 18:05:00,44.0,38.9,30.35,WSW,243,0.0,0.0,82,0.00,BKN,,0.00,WeatherDisplay:10.37,2013-02-14 02:05:00,
2013-02-13 18:10:00,43.6,38.8,30.35,WSW,243,0.0,0.0,83,0.00,BKN,,0.00,WeatherDisplay:10.37,2013-02-14 02:10:00,
2013-02-13 18:15:00,43.3,38.8,30.35,WSW,243,0.0,0.0,84,0.00,BKN,,0.00,WeatherDisplay:10.37,2013-02-14 02:15:00,
2013-02-13 18:20:00,43.0,38.5,30.35,WSW,243,0.0,0.0,84,0.00,BKN,,0.00,WeatherDisplay:10.37,2013-02-14 02:20:00,
2013-02-13 18:25:00,42.7,38.5,30.36,WSW,243,0.0,0.0,85,0.00,BKN,,0.00,WeatherDisplay:10.37,2013-02-14 02:25:00,
2013-02-13 18:30:00,42.5,38.6,30.36,WSW,243,0.0,0.0,86,0.00,BKN,,0.00,WeatherDisplay:10.37,2013-02-14 02:30:00,
2013-02-13 18:35:00,42.3,38.4,30.36,WSW,243,0.0,0.0,86,0.00,BKN,,0.00,WeatherDisplay:10.37,2013-02-14 02:35:00,
2013-02-13 18:40:00,42.2,38.6,30.36,WSW,243,0.0,0.0,87,0.00,BKN,,0.00,WeatherDisplay:10.37,2013-02-14 02:40:00,
2013-02-13 18:45:00,41.9,38.3,30.37,WSW,243,0.0,0.0,87,0.00,BKN,,0.00,WeatherDisplay:10.37,2013-02-14 02:45:00,
2013-02-13 18:50:00,41.4,37.8,30.37,WSW,243,0.0,0.0,87,0.00,BKN,,0.00,WeatherDisplay:10.37,2013-02-14 02:50:00,
2013-02-13 18:55:00,41.0,37.7,30.37,WSW,243,0.0,0.0,88,0.00,BKN,,0.00,WeatherDisplay:10.37,2013-02-14 02:55:00,
2013-02-13 19:00:00,40.7,37.7,30.37,WSW,243,0.0,0.0,89,0.00,BKN,,0.00,WeatherDisplay:10.37,2013-02-14 03:00:00,
2013-02-13 19:05:00,40.6,37.6,30.37,WSW,243,0.0,0.0,89,0.00,BKN,,0.00,WeatherDisplay:10.37,2013-02-14 03:05:00,
2013-02-13 19:11:00,40.6,37.6,30.37,WSW,243,0.0,0.0,89,0.00,BKN,,0.00,WeatherDisplay:10.37,2013-02-14 03:11:00,
2013-02-13 19:16:00,40.6,37.6,30.38,WSW,243,0.0,0.0,89,0.00,BKN,,0.00,WeatherDisplay:10.37,2013-02-14 03:16:00,
2013-02-13 19:20:00,40.7,37.7,30.38,WSW,243,0.0,0.0,89,0.00,BKN,,0.00,WeatherDisplay:10.37,2013-02-14 03:20:00,
2013-02-13 19:26:00,40.7,37.7,30.38,WSW,243,0.0,0.0,89,0.00,BKN,,0.00,WeatherDisplay:10.37,2013-02-14 03:26:00,
2013-02-13 19:31:00,40.7,37.7,30.38,WSW,243,0.0,0.0,89,0.00,BKN,,0.00,WeatherDisplay:10.37,2013-02-14 03:31:00,
2013-02-13 19:36:00,40.7,37.7,30.38,WSW,243,0.0,0.0,89,0.00,BKN,,0.00,WeatherDisplay:10.37,2013-02-14 03:36:00,
2013-02-13 19:41:00,40.6,37.6,30.38,WSW,243,0.0,0.0,89,0.00,BKN,,0.00,WeatherDisplay:10.37,2013-02-14 03:41:00,
2013-02-13 19:46:00,40.6,37.6,30.38,WSW,243,0.0,0.0,89,0.00,BKN,,0.00,WeatherDisplay:10.37,2013-02-14 03:46:00,
2013-02-13 19:51:00,40.5,37.5,30.38,WSW,243,0.0,0.0,89,0.00,BKN,,0.00,WeatherDisplay:10.37,2013-02-14 03:51:00,
2013-02-13 19:56:00,40.5,37.5,30.38,WSW,243,0.0,0.0,89,0.00,BKN,,0.00,WeatherDisplay:10.37,2013-02-14 03:56:00,
2013-02-13 20:01:00,40.5,37.5,30.38,WSW,243,0.0,0.0,89,0.00,BKN,,0.00,WeatherDisplay:10.37,2013-02-14 04:01:00,
2013-02-13 20:06:00,40.5,37.5,30.38,WSW,243,0.0,0.0,89,0.00,BKN,,0.00,WeatherDisplay:10.37,2013-02-14 04:06:00,
2013-02-13 20:11:00,40.4,37.4,30.38,WSW,243,0.0,0.0,89,0.00,BKN,,0.00,WeatherDisplay:10.37,2013-02-14 04:11:00,
2013-02-13 20:16:00,40.4,37.4,30.38,WSW,243,0.0,0.0,89,0.00,BKN,,0.00,WeatherDisplay:10.37,2013-02-14 04:16:00,
2013-02-13 20:21:00,40.4,37.4,30.38,WSW,243,0.0,0.0,89,0.00,BKN,,0.00,WeatherDisplay:10.37,2013-02-14 04:21:00,
2013-02-13 20:26:00,40.4,37.4,30.38,WSW,243,0.0,0.0,89,0.00,BKN,,0.00,WeatherDisplay:10.37,2013-02-14 04:26:00,
2013-02-13 20:31:00,40.4,37.4,30.38,WSW,243,0.0,0.0,89,0.00,BKN,,0.00,WeatherDisplay:10.37,2013-02-14 04:31:00,
2013-02-13 20:36:00,40.4,37.4,30.38,WSW,243,0.0,0.0,89,0.00,BKN,,0.00,WeatherDisplay:10.37,2013-02-14 04:36:00,
2013-02-13 20:41:00,40.4,37.4,30.38,WSW,243,0.0,0.0,89,0.00,BKN,,0.00,WeatherDisplay:10.37,2013-02-14 04:41:00,
2013-02-13 20:46:00,40.4,37.7,30.38,WSW,243,0.0,0.0,90,0.00,BKN,,0.00,WeatherDisplay:10.37,2013-02-14 04:46:00,
2013-02-13 20:51:00,40.4,37.7,30.38,WSW,243,0.0,0.0,90,0.00,BKN,,0.00,WeatherDisplay:10.37,2013-02-14 04:51:00,
2013-02-13 20:56:00,40.3,37.6,30.38,WSW,243,0.0,0.0,90,0.00,BKN,,0.00,WeatherDisplay:10.37,2013-02-14 04:56:00,
2013-02-13 21:00:00,40.3,37.6,30.39,WSW,243,0.0,0.0,90,0.00,BKN,,0.00,WeatherDisplay:10.37,2013-02-14 05:00:00,
2013-02-13 21:05:00,40.3,37.6,30.39,WSW,243,0.0,0.0,90,0.00,BKN,,0.00,WeatherDisplay:10.37,2013-02-14 05:05:00,
2013-02-13 21:10:00,40.3,37.6,30.39,WSW,243,0.0,0.0,90,0.00,BKN,,0.00,WeatherDisplay:10.37,2013-02-14 05:10:00,
2013-02-13 21:15:00,40.3,37.6,30.40,WSW,243,0.0,0.0,90,0.00,BKN,,0.00,WeatherDisplay:10.37,2013-02-14 05:15:00,
2013-02-13 21:20:00,40.4,38.0,30.40,WSW,243,0.0,0.0,91,0.00,BKN,,0.00,WeatherDisplay:10.37,2013-02-14 05:20:00,
2013-02-13 21:25:00,40.5,38.1,30.40,WSW,243,0.0,0.0,91,0.00,BKN,,0.00,WeatherDisplay:10.37,2013-02-14 05:25:00,
2013-02-13 21:30:00,40.5,38.1,30.40,WSW,243,0.0,0.0,91,0.00,BKN,,0.00,WeatherDisplay:10.37,2013-02-14 05:30:00,
2013-02-13 21:35:00,40.5,38.1,30.40,WSW,243,0.0,0.0,91,0.00,BKN,,0.00,WeatherDisplay:10.37,2013-02-14 05:35:00,
2013-02-13 21:40:00,40.5,38.4,30.40,WSW,243,0.0,0.0,92,0.00,BKN,,0.00,WeatherDisplay:10.37,2013-02-14 05:40:00,
2013-02-13 21:45:00,40.6,38.5,30.40,WSW,243,0.0,0.0,92,0.00,BKN,,0.00,WeatherDisplay:10.37,2013-02-14 05:45:00,
2013-02-13 21:50:00,40.6,38.5,30.40,WSW,243,0.0,0.0,92,0.00,BKN,,0.00,WeatherDisplay:10.37,2013-02-14 05:50:00,
2013-02-13 21:55:00,40.7,38.6,30.40,WSW,243,0.0,0.0,92,0.00,BKN,,0.00,WeatherDisplay:10.37,2013-02-14 05:55:00,
2013-02-13 22:00:00,40.7,38.6,30.40,WSW,243,0.0,0.0,92,0.00,BKN,,0.00,WeatherDisplay:10.37,2013-02-14 06:00:00,
2013-02-13 22:05:00,40.7,38.6,30.40,WSW,243,0.0,0.0,92,0.00,BKN,,0.00,WeatherDisplay:10.37,2013-02-14 06:05:00,
2013-02-13 22:10:00,40.7,38.6,30.40,WSW,243,0.0,0.0,92,0.00,BKN,,0.00,WeatherDisplay:10.37,2013-02-14 06:10:00,
2013-02-13 22:15:00,40.7,38.6,30.40,WSW,243,0.0,0.0,92,0.00,BKN,,0.00,WeatherDisplay:10.37,2013-02-14 06:15:00,
2013-02-13 22:20:00,40.7,38.6,30.40,WSW,243,0.0,0.0,92,0.00,BKN,,0.00,WeatherDisplay:10.37,2013-02-14 06:20:00,
2013-02-13 22:25:00,40.6,38.5,30.41,WSW,243,0.0,0.0,92,0.00,BKN,,0.00,WeatherDisplay:10.37,2013-02-14 06:25:00,
2013-02-13 22:30:00,40.6,38.5,30.41,WSW,243,0.0,0.0,92,0.00,BKN,,0.00,WeatherDisplay:10.37,2013-02-14 06:30:00,
2013-02-13 22:35:00,40.6,38.5,30.41,WSW,243,0.0,0.0,92,0.00,BKN,,0.00,WeatherDisplay:10.37,2013-02-14 06:35:00,
2013-02-13 22:40:00,40.6,38.5,30.41,WSW,243,0.0,0.0,92,0.00,BKN,,0.00,WeatherDisplay:10.37,2013-02-14 06:40:00,
2013-02-13 22:45:00,40.6,38.7,30.41,WSW,243,0.0,0.0,93,0.00,BKN,,0.00,WeatherDisplay:10.37,2013-02-14 06:45:00,
2013-02-13 22:50:00,40.6,38.7,30.41,WSW,243,0.0,0.0,93,0.00,BKN,,0.00,WeatherDisplay:10.37,2013-02-14 06:50:00,
2013-02-13 22:55:00,40.6,38.7,30.41,WSW,243,0.0,0.0,93,0.00,BKN,,0.00,WeatherDisplay:10.37,2013-02-14 06:55:00,
2013-02-13 23:00:00,40.6,38.7,30.41,WSW,243,0.0,0.0,93,0.00,BKN,,0.00,WeatherDisplay:10.37,2013-02-14 07:00:00,
2013-02-13 23:05:00,40.6,38.7,30.41,WSW,243,0.0,0.0,93,0.00,BKN,,0.00,WeatherDisplay:10.37,2013-02-14 07:05:00,
2013-02-13 23:10:00,40.6,38.7,30.41,WSW,243,0.0,0.0,93,0.00,BKN,,0.00,WeatherDisplay:10.37,2013-02-14 07:10:00,
2013-02-13 23:15:00,40.5,38.6,30.41,WSW,243,0.0,0.0,93,0.00,BKN,,0.00,WeatherDisplay:10.37,2013-02-14 07:15:00,
2013-02-13 23:20:00,40.5,38.6,30.41,WSW,243,0.0,0.0,93,0.00,BKN,,0.00,WeatherDisplay:10.37,2013-02-14 07:20:00,
2013-02-13 23:25:00,40.5,38.6,30.41,WSW,243,0.0,0.0,93,0.00,BKN,,0.00,WeatherDisplay:10.37,2013-02-14 07:25:00,
2013-02-13 23:30:00,40.4,38.5,30.41,WSW,243,0.0,0.0,93,0.00,BKN,,0.00,WeatherDisplay:10.37,2013-02-14 07:30:00,
2013-02-13 23:35:00,40.4,38.5,30.41,WSW,243,0.0,0.0,93,0.00,BKN,,0.00,WeatherDisplay:10.37,2013-02-14 07:35:00,
2013-02-13 23:40:00,40.4,38.5,30.42,WSW,243,0.0,0.0,93,0.00,BKN,,0.00,WeatherDisplay:10.37,2013-02-14 07:40:00,
2013-02-13 23:45:00,40.4,38.5,30.42,WSW,243,0.0,0.0,93,0.00,BKN,,0.00,WeatherDisplay:10.37,2013-02-14 07:45:00,
2013-02-13 23:50:00,40.4,38.5,30.42,WSW,243,0.0,0.0,93,0.00,BKN,,0.00,WeatherDisplay:10.37,2013-02-14 07:50:00,
2013-02-13 23:55:00,40.3,38.4,30.42,WSW,243,0.0,0.0,93,0.00,BKN,,0.00,WeatherDisplay:10.37,2013-02-14 07:55:00,